Regional Weather Roundup
Issued by NWS Nashville, TN

Home | Current Version | Previous Version | Text Only | Print | Product List | Glossary On
Versions: 1 2 3 4 5 6 7 8 9 10 11 12 13 14 15 16 17 18 19 20 21 22 23 24 25 26 27 28 29 30 31 32 33 34 35 36 37 38 39 40 41 42 43 44 45 46 47 48 49
000
ASUS44 KOHX 282110
RWROHX
MIDDLE TENNESSEE HOURLY WEATHER ROUNDUP
NATIONAL WEATHER SERVICE NASHVILLE TN
400 PM CDT TUE JUL 28 2015

NOTE: "FAIR" INDICATES FEW OR NO CLOUDS BELOW 12,000 FEET WITH
NO SIGNIFICANT WEATHER AND/OR OBSTRUCTIONS TO VISIBILITY.

* THESE REPORTS ARE NOT UNDER NWS QUALITY CONTROL AND MAY NOT
  REPORT WEATHER SUCH AS PRECIPITATION AND FOG.


TNZ005>011-023>034-057-059-062>066-078-080-282200
...NORTHERN MIDDLE TENNESSEE...

CITY           SKY/WX    TMP DP  RH WIND       PRES   REMARKS
CLARKSVILLE    PTSUNNY   93  75  55 W9        29.96S HX 104
CROSSVILLE     PTSUNNY   83  72  69 W20G29    30.06S
DICKSON        SUNNY     91  75  59 VRB7      29.98F HX 102
NASHVILLE      CLOUDY    88  75  66 E8        29.98R THUNDER HX  97
ROCKWOOD       PTSUNNY   84  73  69 S3        30.04F HX  90
SMYRNA         CLOUDY    92  76  59 SE7       29.98F HX 104
$$
TNZ056-058-060-061-075>077-079-093>097-282200
...SOUTHERN MIDDLE TENNESSEE...

CITY           SKY/WX    TMP DP  RH WIND       PRES   REMARKS
LEWISBURG      PTSUNNY   96  71  44 NW6       29.96F HX 103
MCMINNVILLE    SUNNY     81  73  78 N7        30.04F
SHELBYVILLE    SUNNY     88  75  66 S9        30.00F HX  97
TULLAHOMA      PTSUNNY   73  72  94 S6        30.03F
WINCHESTER     PTSUNNY   81  73  78 N13       30.03R
$$


...KEY TO REMARKS...
VSB - VISIBILITY IN MILES
WCI - WIND CHILL INDEX
HX  - HEAT INDEX



USA.gov is the U.S. government's official web portal to all federal, state and local government web resources and services.